This is the latest recevied weather packets stored in our database for station/object K3PPP. If no packets are shown the sender has not sent any weather packets the latest 10 day(s).
| Time | Temp. | Humidity | Pressure | Rain* | Wind** | Luminosity | Snow |
|---|---|---|---|---|---|---|---|
| 1777681351 | 5.56° C | 97% | 1011.9 hPa | 0 mm | - | 0 W/m² | - |
| 1777681047 | 5.56° C | 97% | 1011.9 hPa | 0 mm | - | 0 W/m² | - |
| 1777680746 | 5.56° C | 97% | 1011.8 hPa | 0 mm | - | 0 W/m² | - |
| 1777680443 | 5.56° C | 97% | 1012.1 hPa | 0 mm | - | 1 W/m² | - |
| 1777680141 | 5.56° C | 97% | 1011.8 hPa | 0 mm | - | 1 W/m² | - |
| 1777679836 | 5.56° C | 97% | 1011.8 hPa | 0 mm | - | 2 W/m² | - |
| 1777679532 | 5.56° C | 97% | 1011.7 hPa | 0 mm | - | 4 W/m² | - |
| 1777679228 | 5.56° C | 97% | 1011.7 hPa | 0 mm | - | 6 W/m² | - |
| 1777678925 | 5.56° C | 97% | 1011.5 hPa | 0 mm | - | 7 W/m² | - |
| 1777678623 | 5.56° C | 97% | 1011.5 hPa | 0 mm | - | 14 W/m² | - |
| 1777678320 | 5.56° C | 97% | 1011.7 hPa | 0 mm | - | 4 W/m² | - |
| 1777678016 | 5.56° C | 97% | 1011.5 hPa | 1.78 mm | - | 7 W/m² | - |
| 1777677714 | 5.56° C | 97% | 1011.5 hPa | 1.78 mm | - | 17 W/m² | - |
| 1777677411 | 5.56° C | 96% | 1011.6 hPa | 1.78 mm | - | 9 W/m² | - |
| 1777677109 | 5.56° C | 96% | 1011.7 hPa | 1.78 mm | - | 6 W/m² | - |
| 1777676807 | 5.56° C | 96% | 1011.6 hPa | 1.27 mm | - | 7 W/m² | - |
| 1777676505 | 5.56° C | 95% | 1011.7 hPa | 3.05 mm | - | 5 W/m² | - |
| 1777676203 | 5.56° C | 95% | 1011.7 hPa | 3.05 mm | - | 13 W/m² | - |
| 1777675899 | 6.11° C | 94% | 1011.7 hPa | 0 mm | - | 7 W/m² | - |
| 1777675596 | 6.11° C | 93% | 1011.8 hPa | 1.27 mm | - | 24 W/m² | - |
| 1777675293 | 6.11° C | 93% | 1011.6 hPa | 1.27 mm | - | 20 W/m² | - |
| 1777674989 | 6.11° C | 92% | 1011.6 hPa | 0 mm | - | 14 W/m² | - |
| 1777674686 | 6.67° C | 90% | 1011.9 hPa | 0 mm | - | 10 W/m² | - |
| 1777674388 | 6.67° C | 89% | 1011.7 hPa | 0 mm | - | 19 W/m² | - |
| 1777674080 | 7.22° C | 88% | 1011.9 hPa | 0 mm | - | 18 W/m² | - |
* Rain latest hour (hover to see other rain measurements)
** Current wind speed in m/s (hover to see current wind gust speed)